Malmstrom AFB, MT

11:54 PM MDT on September 25, 2017 (GMT -0600)
Malmstrom AFB

Weather History for KGFA - August, 2013

Change the Weather History Date:

Saturday, August 24, 2013

  Actual Average (KGTF) Record (KGTF)
Temperature  
Mean Temperature 76 °F -  
Max Temperature 89 °F 80 °F 106 °F (1969)
Min Temperature 62 °F 51 °F 30 °F (1992)
Cooling Degree Days 10    
Growing Degree Days 26 (Base 50)    
Moisture  
Dew Point 39 °F    
Average Humidity 32    
Maximum Humidity 53    
Minimum Humidity 11    
Precipitation  
Precipitation 0.00 in - - ()
Sea Level Pressure  
Sea Level Pressure 29.84 in    
Wind  
Wind Speed 4 mph (SW)    
Max Wind Speed 13 mph    
Max Gust Speed 23 mph    
Visibility 10 miles    
Events      
Averages and records for this station are not official NWS values.
T = Trace of Precipitation, MM = Missing Value Source: NWS Daily Summary

Daily Weather History Graph

Daily Weather History Graph

Search for Another Location

Airport or City:

Trip Planner

Search our weather history database for the weather conditions in past years. The results will help you decide how hot, cold, wet, or windy it might be!

Date:

Astronomy

Aug. 24, 2013 Rise Set
Actual Time 6:33 AM MDT 8:19 PM MDT
Civil Twilight 6:00 AM MDT 8:52 PM MDT
Nautical Twilight 5:20 AM MDT 9:32 PM MDT
Astronomical Twilight 4:36 AM MDT 10:15 PM MDT
Moon 9:53 PM MDT (8/24) 10:58 AM MDT (8/24)
Length of Visible Light 14h 51m
Length of Day
13h 46m
Waning Gibbous, 84% of the Moon is Illuminated
Aug 24
Waning Gibbous
Aug 28
Last Quarter
Sep 5
New
Sep 12
First Quarter
Sep 19
Full

Hourly Weather History & Observations

Time (MDT) Temp. Dew Point Humidity Pressure Visibility Wind Dir Wind Speed Gust Speed Precip Events Conditions
12:56 AM 64.9 °F 43.0 °F 45% 29.83 in 10.0 mi Calm Calm - N/A   Clear
1:56 AM 66.9 °F 44.1 °F 44% 29.82 in 10.0 mi NNE 3.5 mph - N/A   Clear
2:56 AM 70.0 °F 45.0 °F 41% 29.81 in 10.0 mi Calm Calm - N/A   Clear
3:56 AM 63.0 °F 45.0 °F 52% 29.84 in 10.0 mi South 5.8 mph - N/A   Clear
4:56 AM 63.0 °F 45.0 °F 52% 29.84 in 10.0 mi SSW 4.6 mph - N/A   Clear
5:56 AM 64.0 °F 45.0 °F 50% 29.84 in 10.0 mi Calm Calm - N/A   Clear
6:56 AM 62.1 °F 45.0 °F 53% 29.87 in 10.0 mi Calm Calm - N/A   Clear
7:56 AM 64.0 °F 46.0 °F 52% 29.88 in 10.0 mi Calm Calm - N/A   Clear
8:56 AM 69.1 °F 48.0 °F 47% 29.90 in 10.0 mi SSW 5.8 mph - N/A   Clear
9:56 AM 73.9 °F 48.0 °F 40% 29.88 in 10.0 mi SSW 6.9 mph - N/A   Clear
10:56 AM 77.0 °F 46.9 °F 34% 29.88 in 10.0 mi WSW 6.9 mph - N/A   Clear
11:56 AM 81.0 °F 44.1 °F 27% 29.86 in 10.0 mi SW 10.4 mph - N/A   Clear
12:56 PM 84.9 °F 36.0 °F 17% 29.85 in 10.0 mi SW 11.5 mph 19.6 mph N/A   Clear
1:56 PM 84.9 °F 37.0 °F 18% 29.83 in 10.0 mi West 8.1 mph - N/A   Clear
2:56 PM 88.0 °F 34.0 °F 15% 29.81 in 10.0 mi South 9.2 mph 19.6 mph N/A   Clear
3:56 PM 88.0 °F 28.0 °F 12% 29.81 in 10.0 mi SW 10.4 mph - N/A   Clear
4:56 PM 88.0 °F 27.0 °F 11% 29.80 in 10.0 mi WNW 6.9 mph - N/A   Clear
5:56 PM 89.1 °F 27.0 °F 11% 29.79 in 10.0 mi Variable 4.6 mph - N/A   Clear
6:56 PM 84.9 °F 28.0 °F 13% 29.81 in 10.0 mi NNE 5.8 mph - N/A   Clear
7:56 PM 79.0 °F 30.0 °F 17% 29.83 in 10.0 mi NNE 6.9 mph - N/A   Clear
8:56 PM 73.9 °F 28.9 °F 19% 29.86 in 10.0 mi ENE 5.8 mph - N/A   Clear
9:56 PM 70.0 °F 30.9 °F 24% 29.88 in 10.0 mi ENE 4.6 mph - N/A   Scattered Clouds
11:56 PM 72.0 °F 44.1 °F 37% 29.87 in 10.0 mi South 12.7 mph 23.0 mph N/A   Clear